Terminal Aerodrome Forecast
Issued by NWS Sioux Falls, SD

Home | Current Version | Previous Version | Graphics & Text | Print | Product List | Glossary On
Versions: 1 2 3 4 5 6 7 8 9 10 11 12 13 14 15 16 17 18 19 20 21 22 23 24 25 26 27
000
FTUS43 KFSD 291700 RRA
TAFSUX
TAF
KSUX 291745Z 2918/3018 33007KT P6SM BKN060
     FM300100 VRB02KT P6SM SKC
     FM301600 35005KT P6SM FEW040=

USA.gov is the U.S. government's official web portal to all federal, state and local government web resources and services.